TimeEDT,TemperatureF,Dew PointF,Humidity,Sea Level PressureIn,VisibilityMPH,Wind Direction,Wind SpeedMPH,Gust SpeedMPH,PrecipitationIn,Events,Conditions,WindDirDegrees,DateUTC
12:02 AM,71.6,71.6,100,29.96,10.0,Calm,Calm,-,N/A,,Overcast,0,2013-10-19 04:02:00
12:58 AM,71.4,71.4,100,29.94,10.0,ESE,4.6,-,N/A,,Clear,120,2013-10-19 04:58:00
1:12 AM,71.6,71.6,100,29.93,10.0,ESE,4.6,-,N/A,,Clear,120,2013-10-19 05:12:00
1:58 AM,69.6,69.6,100,29.94,10.0,NNW,1.2,-,N/A,,Clear,340,2013-10-19 05:58:00
2:58 AM,69.8,69.8,100,29.93,10.0,Calm,Calm,-,N/A,,Overcast,0,2013-10-19 06:58:00
3:58 AM,68.0,68.0,100,29.92,10.0,Calm,Calm,-,N/A,,Clear,0,2013-10-19 07:58:00
4:39 AM,68.0,68.0,100,29.91,10.0,Calm,Calm,-,N/A,,Mostly Cloudy,0,2013-10-19 08:39:00
4:58 AM,68.0,68.0,100,29.92,10.0,Calm,Calm,-,N/A,,Mostly Cloudy,0,2013-10-19 08:58:00
5:58 AM,67.3,67.3,100,29.93,10.0,NW,1.2,-,N/A,,Scattered Clouds,310,2013-10-19 09:58:00
6:37 AM,66.2,66.2,100,29.92,10.0,SE,1.2,-,N/A,,Scattered Clouds,140,2013-10-19 10:37:00
6:58 AM,67.1,67.1,100,29.93,6.0,Calm,Calm,-,N/A,,Clear,0,2013-10-19 10:58:00
7:09 AM,66.2,66.2,100,29.92,10.0,Calm,Calm,-,N/A,,Clear,0,2013-10-19 11:09:00
7:19 AM,66.2,66.2,100,29.92,9.0,Calm,Calm,-,N/A,,Partly Cloudy,0,2013-10-19 11:19:00
7:25 AM,66.2,66.2,100,29.92,9.0,Calm,Calm,-,N/A,,Partly Cloudy,0,2013-10-19 11:25:00
7:58 AM,67.5,67.5,100,29.94,10.0,West,3.5,-,N/A,,Clear,280,2013-10-19 11:58:00
8:58 AM,69.3,69.3,100,29.96,10.0,Calm,Calm,-,N/A,,Mostly Cloudy,0,2013-10-19 12:58:00
9:19 AM,69.8,69.8,100,29.95,10.0,Calm,Calm,-,N/A,,Overcast,0,2013-10-19 13:19:00
9:35 AM,69.8,69.8,100,29.96,10.0,Calm,Calm,-,N/A,,Overcast,0,2013-10-19 13:35:00
9:58 AM,71.4,71.4,100,29.96,10.0,NW,3.5,-,N/A,,Overcast,320,2013-10-19 13:58:00
10:58 AM,74.1,72.5,95,29.96,10.0,West,4.6,-,N/A,,Mostly Cloudy,280,2013-10-19 14:58:00
11:55 AM,77.0,73.4,89,29.95,10.0,Variable,2.3,-,N/A,,Overcast,0,2013-10-19 15:55:00
12:58 PM,80.2,74.1,82,29.94,10.0,WNW,6.9,-,N/A,,Partly Cloudy,300,2013-10-19 16:58:00
1:13 PM,82.4,73.4,74,29.91,10.0,West,6.9,-,N/A,,Mostly Cloudy,280,2013-10-19 17:13:00
1:38 PM,82.4,73.4,74,29.90,10.0,WNW,8.1,-,N/A,,Mostly Cloudy,290,2013-10-19 17:38:00
1:43 PM,82.4,73.4,74,29.90,10.0,WNW,8.1,-,N/A,,Mostly Cloudy,290,2013-10-19 17:43:00
1:53 PM,82.4,73.4,74,29.90,10.0,WSW,8.1,-,N/A,,Mostly Cloudy,240,2013-10-19 17:53:00
1:58 PM,82.8,73.9,75,29.91,10.0,WSW,8.1,-,N/A,,Scattered Clouds,250,2013-10-19 17:58:00
2:58 PM,83.3,74.1,74,29.89,10.0,WSW,4.6,-,N/A,,Scattered Clouds,250,2013-10-19 18:58:00
3:58 PM,82.2,72.9,73,29.88,10.0,West,6.9,-,N/A,,Scattered Clouds,260,2013-10-19 19:58:00
4:43 PM,80.6,73.4,79,29.87,10.0,WNW,5.8,-,N/A,Rain,Light Rain,290,2013-10-19 20:43:00
4:58 PM,77.2,75.2,94,29.89,6.0,NW,4.6,-,0.01,Rain,Light Rain,310,2013-10-19 20:58:00
5:13 PM,75.2,75.2,100,29.90,2.5,NW,13.8,-,N/A,Rain,Heavy Rain,320,2013-10-19 21:13:00
5:18 PM,73.4,73.4,100,29.90,1.2,NNW,12.7,-,N/A,Rain,Heavy Rain,330,2013-10-19 21:18:00
5:23 PM,71.6,71.6,100,29.90,1.0,NNW,10.4,-,N/A,Rain,Heavy Rain,330,2013-10-19 21:23:00
5:28 PM,71.6,71.6,100,29.90,1.2,NW,9.2,-,N/A,Rain,Heavy Rain,310,2013-10-19 21:28:00
5:33 PM,71.6,71.6,100,29.90,2.5,NW,8.1,-,N/A,Rain,Heavy Rain,320,2013-10-19 21:33:00
5:38 PM,71.6,71.6,100,29.90,3.0,WNW,9.2,-,N/A,Rain,Heavy Rain,300,2013-10-19 21:38:00
5:58 PM,71.2,71.2,100,29.92,8.0,West,3.5,-,0.36,Rain,Light Rain,270,2013-10-19 21:58:00
6:17 PM,71.6,71.6,100,29.90,10.0,Calm,Calm,-,N/A,,Overcast,0,2013-10-19 22:17:00
6:58 PM,70.9,70.9,100,29.91,10.0,Calm,Calm,-,0.01,,Overcast,0,2013-10-19 22:58:00
7:58 PM,69.4,68.7,98,29.91,10.0,NNW,4.6,-,N/A,,Overcast,330,2013-10-19 23:58:00
8:58 PM,68.0,68.0,100,29.92,10.0,Calm,Calm,-,N/A,,Overcast,0,2013-10-20 00:58:00
9:58 PM,66.9,66.9,100,29.94,10.0,NNW,4.6,-,N/A,,Mostly Cloudy,330,2013-10-20 01:58:00
10:58 PM,66.2,64.6,94,29.95,10.0,NNW,2.3,-,N/A,,Mostly Cloudy,340,2013-10-20 02:58:00
11:58 PM,65.7,63.5,93,29.94,10.0,NNW,5.8,-,N/A,,Overcast,330,2013-10-20 03:58:00